Other Public Products
Issued by NWS Grand Forks, ND

Home | Current Version | Previous Version | Graphics & Text | Print | Product List | Glossary On
Versions: 1 2 3 4 5 6 7 8 9 10 11 12 13 14 15 16 17 18 19 20 21 22 23 24 25 26 27 28 29 30 31 32 33 34 35 36 37 38 39 40 41 42 43 44 45 46 47 48 49 50
000
FPUS83 KFGF 012331
OPUFGF
PRAIRIE TO PINES WEATHER ROUNDUP
NATIONAL WEATHER SERVICE EASTERN NORTH DAKOTA/GRAND FORKS ND
600 PM CDT MON SEP 01 2014

 **SATELLITE DATA USED TO AUGMENT SKY COVER AT AUTOMATED STATIONS**
 *****  WEATHER ACROSS EASTERN NORTH DAKOTA  *****

CITY           SKY/WX    TMP DP  RH WIND       PRES   REMARKS
GRAND FORKS    PTSUNNY   71  57  61 N8        29.73R
GRAND FORKS AF MOSUNNY   70  53  54 N6        29.74R
GRAND CITY NWS   N/A     72 N/A N/A N2          N/A
BUXTON         NOT AVBL
DEVILS LAKE    MOSUNNY   72  52  49 NW10      29.74S
FARGO          PTSUNNY   69  55  60 NE9       29.71R
WAHPETON ARPT  PTCLDY    72  54  53 SW9       29.73S
$$

 *****  WEATHER ACROSS CENTRAL AND WESTERN NORTH DAKOTA  *****

CITY           SKY/WX    TMP DP  RH WIND       PRES   REMARKS
JAMESTOWN      SUNNY     71  51  49 NW16G23   29.77R
BISMARCK       SUNNY     73  44  35 NW16      29.83R
MINOT          MOSUNNY   73  43  33 W7        29.78S
MINOT AFB      SUNNY     72  44  35 W14       29.77S
GARRISON         N/A     70  47  43 NW7       29.80F
WILLISTON      CLOUDY    65  44  46 W20       29.83R
DICKINSON      PTSUNNY   68  44  42 W10       29.86S
HETTINGER      PTSUNNY   64  49  57 N9        29.90R
$$

 *****  OTHER OBSERVATIONS NORTHEAST NORTH DAKOTA  *****

CITY           SKY/WX    TMP DP  RH WIND       PRES   REMARKS
WALHALLA         N/A     72  48  43 NW9       29.70S
LANGDON        FAIR      66  48  52 W9        29.73S
CAVALIER       FAIR      68  55  64 SW7       29.70F
GRAFTON        FAIR      66  54  63 SW7       29.71F
CANDO          FAIR      63  55  77 CALM      29.76R
FORT TOTTEN      N/A     72  51  48 NW5       29.95S
ROLLA          FAIR      66  45  45 NW10G18   29.76S
RUGBY          FAIR      68  48  49 W10       29.77S
 ***** THE ABOVE OBSERVATIONS ARE NON NWS ARE NOT QUALITY
        CONTROLLED AND MAY MIS-REPORT RAIN FOR SNOW...
$$

 *****  OTHER OBSERVATIONS SOUTHEAST NORTH DAKOTA *****

CITY           SKY/WX    TMP DP  RH WIND       PRES   REMARKS
COOPERSTOWN    NOT AVBL
VALLEY CITY    FAIR      72  52  49 NW15      29.77R
OAKES            N/A     73  55  53 NW15      29.77S
GWINNER        CLEAR     73  54  49 NW14      29.77R
SHEYENNE NWR     N/A     76  53  43 W13       29.95S
BUFFALO          N/A     71  45  38 CALM        N/A
WYNDMERE       NOT AVBL
 ***** THE ABOVE OBSERVATIONS ARE NON NWS ARE NOT QUALITY
       CONTROLLED AND MAY MIS-REPORT RAIN FOR SNOW...
$$

  *****  WEATHER ACROSS NORTHERN MINNESOTA  *****

CITY           SKY/WX    TMP DP  RH WIND       PRES   REMARKS
FLAG ISLAND    PTSUNNY   61  54  77 N7        29.69S
WARROAD        PTSUNNY   63  55  77 W14       29.70S
ROSEAU         PTSUNNY   63  55  77 SW6       29.71F
HALLOCK        MOSUNNY   70  54  56 W8        29.70S
THF RVR FALLS  CLOUDY    64  52  63 CALM      29.74F
HALSTAD          N/A     66  54  65 E5          N/A
FOSSTON        CLOUDY    61  57  88 S5        29.75F
BAUDETTE       LGT RAIN  60  54  80 N3        29.68R
WASKISH        MOSUNNY   70  57  64 SW8       29.70S
CROOKSTON      PTSUNNY   68  57  68 N8        29.74S
$$
  *****  WEATHER ACROSS CENTRAL AND WEST MINNESOTA  *****

CITY           SKY/WX    TMP DP  RH WIND       PRES   REMARKS
BEMIDJI        PTSUNNY   66  54  64 W14       29.74R
PARK RAPIDS    CLOUDY    67  54  63 NW9       29.74S
WADENA         CLOUDY    68  57  68 SW5       29.74F
DETROIT LAKES  PTSUNNY   63  52  67 NE12      29.77R THUNDER
MOORHEAD       MOSUNNY   70  55  60 N10       29.74R
FERGUS FALLS   MOSUNNY   73  55  53 W6        29.73S
ELBOW LAKE     FAIR      73  58  59 W9        29.74S
MORRIS MN      LGT RAIN  66  55  68 W7        29.75S
STAPLES        PTSUNNY   70  55  60 SW5       29.75S
WHEATON        PTSUNNY   70  54  56 W7        29.76F
$$
  *****  WEATHER ELSEWHERE ACROSS MINNESOTA  *****

CITY           SKY/WX    TMP DP  RH WIND       PRES   REMARKS
DULUTH         MOSUNNY   70  50  49 W12G20    29.71R
INTRNTL FALLS  SUNNY     67  53  61 NW8       29.68R
ELY            SUNNY     64  52  63 W10G17    29.68R
CLOQUET        MOSUNNY   70  48  46 W10       29.72S
BRAINERD       SUNNY     69  52  54 W10       29.75R
HIBBING        SUNNY     70  50  49 W8        29.71R
ALEXANDRIA     PTSUNNY   71  56  58 N3        29.78S THUNDER
SAINT CLOUD    SUNNY     77  54  44 NW14      29.75S
MINNEAPOLIS    MOSUNNY   76  55  48 W14       29.76R
$$

  *****  WEATHER ACROSS SOUTH DAKOTA  *****

CITY           SKY/WX    TMP DP  RH WIND       PRES   REMARKS
SIOUX FALLS    MOSUNNY   77  55  46 W5        29.83S
BROOKINGS      NOT AVBL
WATERTOWN      CLOUDY    64  53  67 SW17      29.82R
HURON          TSTM      63  54  72 E10       29.83R
SISSETON         N/A     76  53  44 NW9       29.75S
ABERDEEN       PTSUNNY   72  57  59 W6        29.78R
MITCHELL       MOSUNNY   76  58  53 W3        29.84R
PIERRE         PTSUNNY   70  49  47 NW10      29.82R
MOBRIDGE       MOSUNNY   74  50  42 NW8       29.80R
RAPID CITY     PTSUNNY   66  49  54 NW10      29.95S
$$

  *****  SOME WEATHER IN NEARBY STATES *****

CITY           SKY/WX    TMP DP  RH WIND       PRES   REMARKS
GLASGOW MT     CLOUDY    63  48  58 SW20      29.85R
GREAT FALLS MT PTSUNNY   70  34  26 W18G31    29.90F
CHEYENNE WY    MOSUNNY   74  29  19 W20G33    30.03R
SCOTTSBLUFF NE MOSUNNY   71  48  43 N17       29.92R
OMAHA NE       CLOUDY    76  59  55 E3        29.88R
DES MOINES IA  PTSUNNY   77  62  59 W7        29.86R
DAVENPORT IA   PTSUNNY   77  66  68 SW12      29.81R
CHICAGO IL     MOSUNNY   81  63  54 SW16G25   29.77R
EAU CLAIRE WI  SUNNY     73  56  54 W13       29.74R
LA CROSSE WI   SUNNY     79  59  50 NW10      29.75R
$$

  *****  SOME NATIONAL WEATHER *****

CITY           SKY/WX    TMP DP  RH WIND       PRES   REMARKS
LA GUARDIA NY  MOCLDY    83  72  69 S9        29.91F
RALEIGH NC     MOCLDY    88  70  55 W3        30.03S HX  93
ATLANTA GA     CLOUDY    81  70  69 SW6       30.07F
NEW ORLEANS LA CLOUDY    85  75  72 SE7       29.99S HX  93
OKLAHOMA CITY  MOSUNNY   97  66  36 S22       29.78S HX 100
ALBUQUERQUE NM MOSUNNY   91  35  13 CALM      30.03F
SALT LAKE CITY SUNNY     80  36  20 N6        30.06F
LOS ANGELES CA MOSUNNY   78  65  63 W13       29.79F
BOISE ID       SUNNY     75  39  27 NW9       30.02F
SEATTLE WA     MOSUNNY   73  53  49 SW8       30.05F
$$

*** WEATHER ACROSS MANITOBA...SASKATCHEWAN AND ONTARIO ***
                ***ONTARIO***

CITY           SKY/WX    TMP DP  RH WIND       PRES   REMARKS
GERALDTON      CLOUDY    64  61  88 NW5       29.49R
THUNDER BAY    CLOUDY    72  61  68 NW9G20    29.57R
SIOUX LOOKOUT  MOSUNNY   66  52  59 W7        29.59R
TORONTO        PTCLDY    81  68  65 SW16G23   29.82R
BIG TROUT LK   CLOUDY    61  54  77 N7        29.45S
PICKLE LAKE    PTSUNNY   63  55  77 W9        29.52R
DRYDEN         SUNNY     68  52  56 W10       29.62R
KENORA         PTSUNNY   57  54  88 W7        29.65F
$$
                *** MANITOBA***

CITY           SKY/WX    TMP DP  RH WIND       PRES   REMARKS
BRANDON        MOSUNNY   72  46  40 NW16      29.71S
DAUPHIN        PTSUNNY   68  48  49 NW15G21   29.65S
ISLAND LAKE    TSTM      57  55  94 SW12      29.59
PILOT MOUND      N/A     70  41  35 W10G17      N/A
THE PAS        MOSUNNY   66  50  55 NW10      29.60S
THOMPSON       MOSUNNY   68  46  45 NW7       29.51F
WINNIPEG       MOSUNNY   70  54  56 SW8       29.67R
CHURCHILL      PTSUNNY   54  52  94 NE7       29.50S
GILLAM         MOSUNNY   66  54  63 W8        29.48S
$$
                ***SASKATCHEWAN***

CITY           SKY/WX    TMP DP  RH WIND       PRES   REMARKS
ESTEVAN        MOSUNNY   70  43  37 NW13      29.79R
KINDERSLEY     PTSUNNY   66  43  42 W5        29.73F
LLOYDMINSTER   CLOUDY    59  46  63 W8        29.73F
PRINCE ALBERT  MOSUNNY   68  46  45 W10G20    29.67S
REGINA         MOSUNNY   68  43  40 NW17      29.78S
YORKTON        MOSUNNY   66  43  42 W20       29.71S



USA.gov is the U.S. government's official web portal to all federal, state and local government web resources and services.